This is the latest recevied weather packets stored in our database for station/object F5ZQC-13. If no packets are shown the sender has not sent any weather packets the latest 10 day(s).
| Time | Temp. | Humidity | Pressure | Rain* | Wind** | Luminosity | Snow |
|---|---|---|---|---|---|---|---|
| 1777539677 | 21.67° C | 46% | 1014 hPa | 0 mm | - | - | - |
| 1777539555 | 21.67° C | 46% | 1014 hPa | 0 mm | - | - | - |
| 1777539533 | 21.67° C | 47% | 1013.8 hPa | 0 mm | - | - | - |
| 1777539164 | 21.67° C | 47% | 1013.9 hPa | 0 mm | - | - | - |
| 1777539038 | 21.67° C | 47% | 1013.8 hPa | 0 mm | - | - | - |
| 1777538794 | 21.67° C | 48% | 1013.7 hPa | 0 mm | - | - | - |
| 1777538672 | 21.11° C | 48% | 1013.6 hPa | 0 mm | - | - | - |
| 1777538645 | 21.67° C | 49% | 1013.6 hPa | 0 mm | - | - | - |
| 1777538526 | 21.11° C | 48% | 1013.7 hPa | 0 mm | - | - | - |
| 1777538402 | 21.11° C | 49% | 1013.7 hPa | 0 mm | - | - | - |
| 1777538375 | 21.11° C | 52% | 1013.8 hPa | 0 mm | - | - | - |
| 1777538330 | 21.11° C | 52% | 1013.8 hPa | 0 mm | - | - | - |
| 1777538273 | 21.11° C | 48% | 1013.7 hPa | 0 mm | - | - | - |
| 1777538005 | 21.11° C | 51% | 1013.7 hPa | 0 mm | - | - | - |
| 1777537971 | 21.11° C | 51% | 1013.7 hPa | 0 mm | - | - | - |
| 1777537849 | 20.56° C | 50% | 1013.7 hPa | 0 mm | - | - | - |
| 1777537727 | 20.56° C | 51% | 1013.5 hPa | 0 mm | - | - | - |
| 1777537489 | 20° C | 51% | 1013.7 hPa | 0 mm | - | - | - |
| 1777537368 | 20° C | 52% | 1013.4 hPa | 0 mm | - | - | - |
| 1777537304 | 20° C | 52% | 1013.6 hPa | 0 mm | - | - | - |
| 1777537289 | 20° C | 55% | 1013.2 hPa | 0 mm | - | - | - |
| 1777537240 | 20° C | 55% | 1013.2 hPa | 0 mm | - | - | - |
| 1777537123 | 19.44° C | 53% | 1013.4 hPa | 0 mm | - | - | - |
| 1777536996 | 19.44° C | 52% | 1013.5 hPa | 0 mm | - | - | - |
| 1777536909 | 19.44° C | 53% | 1013.6 hPa | 0 mm | - | - | - |
* Rain since midnight (hover to see other rain measurements)
** Current wind speed in m/s (hover to see current wind gust speed)